Regional Weather Roundup
Issued by NWS

Home | Current Version | Previous Version | Text Only | Print | Product List | Glossary Off
Versions: 1 2 3 4 5 6 7 8 9 10 11 12 13 14 15 16 17 18 19 20 21 22 23 24 25 26 27

000
ASUS45 KSLC 240610
RWRUT

UTAH REGIONAL WEATHER ROUNDUP
NATIONAL WEATHER SERVICE SALT LAKE CITY UT
1200 AM MDT SUN SEP 24 2017

UTZ001>011-023>025-240700-

NORTHERN UTAH

CITY           SKY/WX    TMP DP  RH WIND       PRES   REMARKS
BRIGHAM CITY   CLOUDY    47  42  82 SW6       29.95S
HILL AFB       LGT RAIN  43  39  87 S8        29.94F
LOGAN          LGT RAIN  48  41  76 S3        29.95R
OGDEN          CLOUDY    44  41  89 S7        29.94F
SALT LAKE CITY LGT RAIN  44  42  93 SE7       29.94F
TOOELE VALLEY  DRIZZLE   43  41  93 SE3       29.97S
WENDOVER       MOCLDY    48  30  49 N8        29.98S
HEBER CITY     MIX PCPN  39  36  87 CALM      29.92F
WEST JORDAN    CLOUDY    42  42 100 CALM      29.96F

$$

UTZ011>015-024>027-240700-

CENTRAL/NORTHEAST UTAH

CITY           SKY/WX    TMP DP  RH WIND       PRES   REMARKS
PROVO AIRPORT  LGT RAIN  43  39  86 NW8       29.94F
MOAB/CANYONLAN CLOUDY    55  42  61 CALM      29.77S
DELTA          CLOUDY    41  39  93 SW5       29.95S
PRICE          CLOUDY    46  32  58 SE6       29.85S
ROOSEVELT      RAIN      45  41  87 W13       29.91R
VERNAL         CLOUDY    51  43  74 CALM      29.83S

$$

UTZ013>016-019>022-027-240700-

SOUTHERN UTAH

CITY           SKY/WX    TMP DP  RH WIND       PRES   REMARKS
BRYCE CANYON   CLOUDY    33  31  92 W15       29.93F WCI  23
CEDAR CITY     CLOUDY    34  34 100 W5        29.97S WCI  30
MILFORD        CLOUDY    42  38  85 NW7       29.95S
ST GEORGE      CLOUDY    52  35  52 N7        29.94R
HANKSVILLE     CLOUDY    54  30  40 W8        29.83S
BLANDING         N/A     43  25  50 W3        29.91S

$$

REGIONAL REPORTS     COLORADO/ARIZONA

CITY           SKY/WX    TMP DP  RH WIND       PRES   REMARKS
CRAIG, CO      CLEAR     40  36  86 CALM      29.88F
GRAND JUNCTION PTCLDY    47  45  93 SW5       29.81S
RIFLE, CO      CLEAR     44  41  89 VRB3      29.85F
MONTROSE, CO   CLOUDY    45  42  89 NW6       29.87R
CORTEZ, CO     CLEAR     51  42  71 SW6       29.86S
PAGE, AZ       MOCLDY    55  27  34 W6        29.86F
GRAND CANYON   PTCLDY    40  23  50 CALM      29.97R
KINGMAN, AZ    CLEAR     55  25  31 N9        29.93R
FLAGSTAFF, AZ  CLEAR     41  22  46 VRB5      29.97R

$$

REGIONAL REPORTS    NEVADA/IDAHO/WYOMING

CITY           SKY/WX    TMP DP  RH WIND       PRES   REMARKS
LAS VEGAS, NV  CLEAR     62  33  33 NE14      29.92R
ELY, NY        PTCLDY    29  27  92 CALM      30.02S
ELKO, NV       CLEAR     39  29  67 CALM      30.04S
POCATELLO, ID  PTCLDY    39  34  82 NW3       30.01R
BURLEY, ID     CLOUDY    44  36  73 SW5       30.00R
FORT BRIDGER,  LGT RAIN  36  36 100 W10       29.98S WCI  28
EVANSTON, WY   LGT SNOW  33  33 100 N12       29.93F FOG     WCI  24
ROCK SPRINGS,  CLOUDY    36  33  89 NE17G26   29.96S WCI  26
KEMMERER, WY   LGT SNOW  34  32  93 NE8       29.96S WCI  27

$$




USA.gov is the U.S. government's official web portal to all federal, state and local government web resources and services.